Find Qianfan Jigui 02-06

NORAD ID: 61557 Int'l Des: 2024-185 Owner: YUANX Country: CN Constellation: spacesail operational
LEOCIRCULARPOLAR

現在のビュー

3D地球を読み込み中...

Qianfan Jigui 02-06について

説明を読み込み中...

次回通過

Passes for default location (London). Set your location on the main map for personalized predictions.

高度履歴

Loading altitude history...

軌道要素

1 61557U 24185F 26149.56470466 .00000716 00000-0 30527-3 0 9998
2 61557 88.9828 57.5628 0011440 105.1962 255.0496 14.24049025 93909
Epoch: May 29, 2026 • Age: 18 hours

現在のステータス

高度 845.2 km
速度 7.42 km/s
衛星直下点 -66.83°S, 50.42°E
打ち上げ日 Oct 15, 2024
運用期間 1.6 years
タイプ internet

技術仕様

分類 Payload
質量 267.00 kg
乾燥質量 267.00 kg
総質量 267.00 kg
長さ 0.30 m
直径 3.00 m
スパン 10.00 m
形状 Box+pan
製造者 GESIH/SECM
バスタイプ Qianfan
フェーズステータス In Orbit
所有者/国 YUANX/CN

Most Searched